User: anonymous   Login
Location: Alma
(38.7220°N, 88.9090°W)
Time: 22:15:57
(UTC-06:00)
Language:

Vanguard 2 Rocket - Orbit

View from above orbital plane
View from above orbital plane
View from above satellite
View from above satellite

Ground track
Ground track

The orbit data is extracted from the following two-line orbital elements,

1    12U 59001B   19320.65387137  .00000055  00000-0  37406-4 0  9997
2    12  32.9016  18.9748 1666086  31.9043 337.2377 11.44314770498067
Epoch (UTC): 16 November 2019 15:41:34
Eccentricity: 0.1666086
inclination: 32.9016°
perigee height: 554 km
apogee height: 3326 km
right ascension of ascending node: 18.9748°
argument of perigee: 31.9043°
revolutions per day: 11.44314770
mean anomaly at epoch: 337.2377°
orbit number at epoch: 49806

The dashed part of the orbit path shows where the satellite is in the earth's shadow,  

DLR